This is the latest recevied weather packets stored in our database for station/object CQ0XSM-11. If no packets are shown the sender has not sent any weather packets the latest 10 day(s).
| Time | Temp. | Humidity | Pressure | Rain* | Wind** | Luminosity | Snow |
|---|---|---|---|---|---|---|---|
| 1777983330 | 13.89° C | 59% | 997.1 hPa | 0 mm | - | - | - |
| 1777983007 | 13.33° C | 57% | 997 hPa | 0 mm | - | - | - |
| 1777982726 | 13.33° C | 56% | 997.2 hPa | 0 mm | - | - | - |
| 1777982406 | 13.33° C | 56% | 997.2 hPa | 0 mm | - | - | - |
| 1777982112 | 13.89° C | 54% | 997.2 hPa | 0 mm | - | - | - |
| 1777981799 | 13.33° C | 56% | 997.3 hPa | 0 mm | - | - | - |
| 1777981510 | 13.33° C | 56% | 997.3 hPa | 0 mm | - | - | - |
| 1777981188 | 13.33° C | 59% | 997.3 hPa | 0 mm | - | - | - |
| 1777980896 | 13.33° C | 57% | 997.4 hPa | 0 mm | - | - | - |
| 1777980293 | 13.33° C | 61% | 997.3 hPa | 0 mm | - | - | - |
| 1777979979 | 12.78° C | 61% | 997.4 hPa | 0 mm | - | - | - |
| 1777979686 | 12.78° C | 64% | 997.5 hPa | 0 mm | - | - | - |
| 1777979381 | 12.78° C | 63% | 997.6 hPa | 0 mm | - | - | - |
| 1777979080 | 12.78° C | 63% | 997.6 hPa | 0 mm | - | - | - |
| 1777978794 | 12.78° C | 65% | 997.6 hPa | 0 mm | - | - | - |
| 1777978475 | 12.78° C | 64% | 997.5 hPa | 0 mm | - | - | - |
| 1777978161 | 13.33° C | 60% | 997.5 hPa | 0 mm | - | - | - |
| 1777977857 | 13.33° C | 60% | 997.5 hPa | 0 mm | - | - | - |
| 1777977552 | 13.33° C | 62% | 997.5 hPa | 0 mm | - | - | - |
| 1777977261 | 13.33° C | 63% | 997.4 hPa | 0 mm | - | - | - |
| 1777976975 | 12.78° C | 67% | 997.6 hPa | 0 mm | - | - | - |
| 1777976660 | 12.22° C | 70% | 997.6 hPa | 0 mm | - | - | - |
| 1777976342 | 11.67° C | 73% | 997.6 hPa | 0 mm | - | - | - |
| 1777976066 | 11.67° C | 76% | 997.7 hPa | 0 mm | - | - | - |
| 1777975732 | 11.67° C | 74% | 997.7 hPa | 0 mm | - | - | - |
* Rain since midnight (hover to see other rain measurements)
** Current wind speed in m/s (hover to see current wind gust speed)